Location: Sevilla
(37.3933°N, 5.9839°W)
Time: 03:01:03
(UTC+02:00)

Vanguard 1 Rocket - All Passes

Search period start: 16 June 2024 00:00
Search period end: 26 June 2024 00:00
Orbit: 649 x 4221 km, 34.3° (Epoch: 15 June)

Date Brightness Start Highest point End Pass type
(mag) Time Alt. Az. Time Alt. Az. Time Alt. Az.
16 Jun - 02:48:50 10° S 03:01:20 33° SE 03:20:22 10° E visible
16 Jun - 05:11:26 10° SW 05:29:34 68° SSE 05:55:37 10° E visible
16 Jun - 07:39:03 10° W 08:02:45 82° S 08:27:24 10° E daylight
16 Jun - 10:10:11 10° W 10:36:07 67° SSW 10:55:28 10° SE daylight
16 Jun - 12:45:05 10° W 13:04:45 33° SW 13:18:12 10° S daylight
17 Jun - 01:40:40 10° SSE 01:49:05 18° ESE 02:00:28 10° E visible
17 Jun - 03:59:41 10° SW 04:14:52 54° SE 04:38:59 10° ENE visible
17 Jun - 06:25:15 10° WSW 06:46:04 80° S 07:12:21 10° E visible
17 Jun - 08:54:43 10° W 09:20:06 77° SSW 09:42:28 10° ESE daylight
17 Jun - 11:27:25 10° WNW 11:51:12 48° SW 12:07:51 10° SSE daylight
17 Jun - 14:08:46 10° W 14:17:08 14° WSW 14:24:06 10° SW daylight
18 Jun - 02:49:01 10° SSW 03:01:25 39° SE 03:21:30 10° ENE visible
18 Jun - 05:12:23 10° WSW 05:30:06 73° SSE 05:56:25 10° E visible
18 Jun - 07:40:07 10° W 08:03:27 82° S 08:28:23 10° ESE daylight
18 Jun - 10:11:04 10° WNW 10:36:28 62° SSW 10:56:10 10° SE daylight
18 Jun - 12:46:37 10° W 13:04:40 27° SW 13:17:49 10° S daylight
19 Jun - 01:39:53 10° S 01:49:05 23° SE 02:02:42 10° E visible
19 Jun - 04:00:27 10° SW 04:15:14 61° SSE 04:39:44 10° ENE visible
19 Jun - 06:26:22 10° W 06:46:48 82° S 07:13:15 10° E visible
19 Jun - 08:55:42 10° W 09:20:38 73° SSW 09:43:18 10° ESE daylight
19 Jun - 11:28:27 10° WNW 11:51:14 41° SW 12:08:02 10° SSE daylight
20 Jun - 02:49:28 10° SSW 03:01:38 45° SE 03:22:25 10° ENE visible
20 Jun - 05:13:27 10° WSW 05:30:45 77° SSE 05:57:12 10° E visible
20 Jun - 07:41:12 10° W 08:04:08 80° S 08:29:16 10° ESE daylight
20 Jun - 10:11:59 10° WNW 10:36:41 56° SW 10:56:39 10° SE daylight
20 Jun - 12:48:45 10° W 13:04:30 22° SW 13:16:51 10° SSW daylight
21 Jun - 01:39:43 10° S 01:49:12 28° SE 02:04:18 10° E visible
21 Jun - 04:01:23 10° SW 04:15:46 66° SSE 04:40:26 10° E visible
21 Jun - 06:27:31 10° W 06:47:33 82° S 07:14:07 10° E visible
21 Jun - 08:56:41 10° W 09:21:04 68° SSW 09:43:58 10° SE daylight
21 Jun - 11:29:42 10° W 11:51:10 35° SW 12:07:53 10° SSE daylight
22 Jun - 00:32:39 10° SSE 00:37:38 14° ESE 00:43:55 10° E visible
22 Jun - 02:50:10 10° SW 03:02:00 51° SE 03:23:11 10° ENE visible
22 Jun - 05:14:36 10° WSW 05:31:30 80° S 05:57:58 10° E visible
22 Jun - 07:42:18 10° W 08:04:45 77° SSW 08:30:03 10° ESE daylight
22 Jun - 10:13:00 10° WNW 10:36:47 49° SW 10:56:53 10° SSE daylight
22 Jun - 12:51:54 10° W 13:04:20 17° WSW 13:14:50 10° SSW daylight
23 Jun - 01:39:57 10° SSW 01:49:26 34° SE 02:05:30 10° E visible
23 Jun - 04:02:26 10° WSW 04:16:26 71° SSE 04:41:07 10° E visible
23 Jun - 06:28:42 10° W 06:48:19 81° S 07:14:55 10° ESE visible
23 Jun - 08:57:42 10° W 09:21:24 62° SSW 09:44:27 10° SE daylight
23 Jun - 11:31:18 10° W 11:51:02 29° SW 12:07:18 10° S daylight
24 Jun - 00:31:27 10° SSE 00:37:48 18° SE 00:46:46 10° E visible
24 Jun - 02:51:03 10° SW 03:02:32 58° SSE 03:23:53 10° ENE visible
24 Jun - 05:15:49 10° W 05:32:20 81° S 05:58:44 10° E visible
24 Jun - 07:43:24 10° W 08:05:18 72° SSW 08:30:41 10° ESE daylight
24 Jun - 10:14:10 10° WNW 10:36:48 43° SW 10:56:50 10° SSE daylight
24 Jun - 12:57:39 10° WSW 13:04:12 12° WSW 13:10:16 10° SW daylight
25 Jun - 01:40:30 10° SSW 01:49:48 40° SE 02:06:29 10° ENE visible
25 Jun - 04:03:37 10° WSW 04:17:14 76° SSE 04:41:48 10° E visible
25 Jun - 06:29:54 10° W 06:49:03 79° S 07:15:38 10° ESE visible
25 Jun - 08:58:47 10° WNW 09:21:38 56° SSW 09:44:42 10° SE daylight
25 Jun - 11:33:25 10° W 11:50:54 24° SW 12:06:06 10° S daylight
